Weather History for Thermopolis, WY

Change the Weather History Date:

Friday, December 7, 2012

  Actual Average (KWRL) Record (KWRL)
Temperature  
Mean Temperature 24 °F 19 °F  
Max Temperature 28 °F 32 °F 54 °F (1981)
Min Temperature 19 °F 6 °F -26 °F (1972)
Degree Days  
Heating Degree Days 42 46  
Month to date heating degree days 312  
Since 1 July heating degree days 2204  
Cooling Degree Days 0 0  
Month to date cooling degree days 0  
Year to date cooling degree days 535  
Moisture  
Dew Point 15 °F    
Average Humidity 74    
Maximum Humidity 100    
Minimum Humidity 34    
Precipitation  
Precipitation 0.00 in 0.01 in 0.12 in (1977)
Month to date precipitation 0.06  
Year to date precipitation 7.40  
Sea Level Pressure  
Sea Level Pressure 29.88 in    
Wind  
Wind Speed 16 mph (WSW)    
Max Wind Speed 29 mph    
Max Gust Speed 31 mph    
Visibility 9 miles    
Events Fog    
T = Trace of Precipitation, MM = Missing Value Source: NWS Daily Summary

Daily Weather History Graph

Daily Weather History Graph

Search for Another Location

Airport:

Trip Planner

Search our weather history database for the weather conditions in past years. The results will help you decide how hot, cold, wet, or windy it might be!

Date:

Astronomy

Dec. 07, 2012 Rise Set
Actual Time 7:32 AM MST 4:36 PM MST
Civil Twilight 7:00 AM MST 5:09 PM MST
Nautical Twilight 6:24 AM MST 5:44 PM MST
Astronomical Twilight 5:49 AM MST 6:19 PM MST
Moon 12:45 AM MST (12/7) 12:44 PM MST (12/7)
Length of Visible Light 10h 08m
Length of Day
9h 04m
Last Quarter, 38% of the Moon is Illuminated
Dec 7
Last Quarter
Dec 13
New
Dec 19
First Quarter
Dec 28
Full
Jan 4
Last Quarter

Hourly Weather History & Observations

Time (MST) Temp. Windchill Dew Point Humidity Pressure Visibility Wind Dir Wind Speed Gust Speed Precip Events Conditions
12:35 AM 21.2 °F 7.3 °F 19.4 °F 93% 29.84 in 10.0 mi West 16.1 mph 27.6 mph N/A   Mostly Cloudy
12:55 AM 21.2 °F 6.0 °F 19.4 °F 93% 29.85 in 10.0 mi NW 19.6 mph - N/A   Mostly Cloudy
1:15 AM 19.4 °F 2.5 °F 17.6 °F 93% 29.84 in 10.0 mi NNW 23.0 mph - N/A   Scattered Clouds
1:35 AM 19.4 °F 2.5 °F 19.4 °F 100% 29.85 in 10.0 mi NNW 23.0 mph - N/A   Clear
1:55 AM 19.4 °F 2.1 °F 19.4 °F 100% 29.85 in 0.2 mi NNW 24.2 mph - N/A Fog Light Freezing Fog
2:15 AM 19.4 °F 2.5 °F 19.4 °F 100% 29.85 in - NW 23.0 mph - N/A   Overcast
2:35 AM 19.4 °F 2.1 °F 19.4 °F 100% 29.86 in - NW 24.2 mph - N/A   Overcast
2:55 AM 19.4 °F 2.8 °F 19.4 °F 100% 29.87 in - NW 21.9 mph - N/A   Overcast
3:15 AM 21.2 °F 5.2 °F 19.4 °F 93% 29.87 in - NW 21.9 mph - N/A   Overcast
3:35 AM 21.2 °F 4.9 °F 19.4 °F 93% 29.86 in - NW 23.0 mph - N/A   Overcast
3:55 AM 21.2 °F 3.9 °F 21.2 °F 100% 29.87 in - NW 26.5 mph - N/A   Overcast
4:15 AM 21.2 °F 3.3 °F 19.4 °F 93% 29.86 in - NNW 28.8 mph - N/A   Overcast
4:35 AM 21.2 °F 3.5 °F 21.2 °F 100% 29.87 in - NNW 27.6 mph - N/A   Overcast
4:55 AM 21.2 °F 4.2 °F 19.4 °F 93% 29.87 in - NNW 25.3 mph - N/A   Overcast
5:15 AM 21.2 °F 3.9 °F 19.4 °F 93% 29.87 in - NNW 26.5 mph 31.1 mph N/A   Overcast
5:35 AM 21.2 °F 4.5 °F 19.4 °F 93% 29.88 in - NNW 24.2 mph 29.9 mph N/A   Overcast
6:15 AM 21.2 °F 6.8 °F 19.4 °F 93% 29.90 in - NW 17.3 mph - N/A   Overcast
6:35 AM 21.2 °F 6.8 °F 19.4 °F 93% 29.89 in - NW 17.3 mph 27.6 mph N/A   Unknown
6:55 AM 21.2 °F 9.5 °F 19.4 °F 93% 29.90 in - NNW 11.5 mph 26.5 mph N/A   Unknown
7:35 AM 19.4 °F 10.4 °F 19.4 °F 100% 29.90 in - North 6.9 mph - N/A   Unknown
7:55 AM 19.4 °F - 19.4 °F 100% 29.92 in - Calm Calm - N/A   Overcast
8:35 AM 21.2 °F - 19.4 °F 93% 29.92 in 10.0 mi Calm Calm - N/A   Mostly Cloudy
8:55 AM 21.2 °F 14.9 °F 19.4 °F 93% 29.92 in 10.0 mi SSE 4.6 mph - N/A   Mostly Cloudy
9:15 AM 21.2 °F 10.9 °F 19.4 °F 93% 29.92 in 7.0 mi SSE 9.2 mph - N/A   Mostly Cloudy
9:35 AM 21.2 °F 9.5 °F 21.2 °F 100% 29.92 in 10.0 mi SSE 11.5 mph - N/A   Scattered Clouds
9:55 AM 21.2 °F 8.9 °F 21.2 °F 100% 29.92 in 2.0 mi SSE 12.7 mph 17.3 mph N/A   Overcast
10:35 AM 21.2 °F 12.6 °F 21.2 °F 100% 29.94 in 0.5 mi SSE 6.9 mph - N/A Fog Light Freezing Fog
10:55 AM 23.0 °F 13.9 °F 21.2 °F 93% 29.94 in 0.8 mi SSE 8.1 mph - N/A   Overcast
11:15 AM 23.0 °F 11.7 °F 21.2 °F 93% 29.94 in 10.0 mi South 11.5 mph - N/A   Scattered Clouds
11:35 AM 23.0 °F 13.1 °F 21.2 °F 93% 29.94 in 10.0 mi South 9.2 mph - N/A   Clear
11:55 AM 24.8 °F 14.6 °F 21.2 °F 86% 29.94 in 10.0 mi SSW 10.4 mph - N/A   Clear
12:15 PM 26.6 °F 18.2 °F 19.4 °F 74% 29.93 in 10.0 mi SW 8.1 mph - N/A   Clear
12:35 PM 28.4 °F 20.4 °F 17.6 °F 64% 29.93 in 10.0 mi SW 8.1 mph 19.6 mph N/A   Clear
12:55 PM 28.4 °F 18.0 °F 17.6 °F 64% 29.92 in 10.0 mi SSW 12.7 mph 24.2 mph N/A   Clear
1:35 PM 26.6 °F 16.8 °F 15.8 °F 64% 29.92 in 10.0 mi SW 10.4 mph - N/A   Clear
1:55 PM 28.4 °F 18.5 °F 14.0 °F 55% 29.92 in 10.0 mi WSW 11.5 mph - N/A   Mostly Cloudy
2:15 PM 28.4 °F 21.2 °F 12.2 °F 51% 29.92 in 10.0 mi WSW 6.9 mph - N/A   Mostly Cloudy
2:35 PM 26.6 °F 18.2 °F 14.0 °F 59% 29.92 in 10.0 mi NW 8.1 mph - N/A   Scattered Clouds
2:55 PM 26.6 °F 21.2 °F 12.2 °F 55% 29.92 in 10.0 mi NNW 4.6 mph - N/A   Scattered Clouds
3:15 PM 26.6 °F 22.6 °F 12.2 °F 55% 29.91 in 10.0 mi NW 3.5 mph - N/A   Clear
3:35 PM 26.6 °F 21.2 °F 10.4 °F 51% 29.92 in 10.0 mi West 4.6 mph - N/A   Mostly Cloudy
4:15 PM 28.4 °F 18.5 °F 3.2 °F 34% 29.91 in 10.0 mi SW 11.5 mph 17.3 mph N/A   Scattered Clouds
4:35 PM 26.6 °F 19.1 °F 8.6 °F 47% 29.92 in 10.0 mi West 6.9 mph - N/A   Clear
4:55 PM 26.6 °F 16.8 °F 8.6 °F 47% 29.91 in 10.0 mi WNW 10.4 mph - N/A   Clear
5:15 PM 26.6 °F 15.2 °F 3.2 °F 37% 29.91 in 10.0 mi WSW 13.8 mph 18.4 mph N/A   Clear
5:35 PM 26.6 °F 13.8 °F 1.4 °F 34% 29.90 in 10.0 mi WSW 17.3 mph - N/A   Clear
5:55 PM 26.6 °F 12.0 °F 1.4 °F 34% 29.90 in 10.0 mi WSW 23.0 mph - N/A   Scattered Clouds
6:35 PM 24.8 °F 11.9 °F 3.2 °F 40% 29.90 in 10.0 mi WSW 16.1 mph 20.7 mph N/A   Scattered Clouds
6:55 PM 24.8 °F 12.9 °F 3.2 °F 40% 29.89 in 10.0 mi WSW 13.8 mph 21.9 mph N/A   Overcast
7:15 PM 24.8 °F 15.3 °F 5.0 °F 43% 29.89 in 10.0 mi SSW 9.2 mph 16.1 mph N/A   Mostly Cloudy
7:35 PM 23.0 °F 15.8 °F 5.0 °F 46% 29.88 in 10.0 mi SSE 5.8 mph - N/A   Scattered Clouds
7:55 PM 23.0 °F 15.8 °F 8.6 °F 54% 29.88 in 10.0 mi SE 5.8 mph - N/A   Clear
8:15 PM 23.0 °F 12.4 °F 8.6 °F 54% 29.86 in 10.0 mi SSE 10.4 mph - N/A   Mostly Cloudy
8:35 PM 23.0 °F 10.6 °F 8.6 °F 54% 29.85 in 10.0 mi SSE 13.8 mph 18.4 mph N/A   Overcast
8:55 PM 24.8 °F 12.9 °F 8.6 °F 50% 29.83 in 10.0 mi SSE 13.8 mph 20.7 mph N/A   Mostly Cloudy
9:15 PM 24.8 °F 12.9 °F 8.6 °F 50% 29.83 in 10.0 mi SSE 13.8 mph 20.7 mph N/A   Scattered Clouds
9:35 PM 23.0 °F 12.4 °F 10.4 °F 59% 29.82 in 10.0 mi South 10.4 mph 18.4 mph N/A   Clear
9:55 PM 23.0 °F 12.4 °F 10.4 °F 59% 29.82 in 10.0 mi South 10.4 mph 17.3 mph N/A   Clear
10:15 PM 23.0 °F 15.8 °F 10.4 °F 59% 29.81 in 10.0 mi SSE 5.8 mph - N/A   Clear
10:35 PM 21.2 °F 12.6 °F 10.4 °F 63% 29.80 in 10.0 mi ESE 6.9 mph - N/A   Clear
10:55 PM 21.2 °F 10.1 °F 10.4 °F 63% 29.78 in 10.0 mi ESE 10.4 mph - N/A   Clear
11:35 PM 21.2 °F 9.5 °F 10.4 °F 63% 29.76 in 10.0 mi SE 11.5 mph - N/A   Overcast
11:55 PM 23.0 °F 13.1 °F 10.4 °F 59% 29.76 in 10.0 mi SSE 9.2 mph 17.3 mph N/A   Mostly Cloudy